Location: Kershaw
(34.5481°N, 80.5823°W)
Time: 05:02:02
(UTC+00:00)

Tiros 1 despin weight - Pass Details

Date: 08 October 2022
Orbit: 590 x 637 km, 48.2° (Epoch: 09 December)

Event Time Altitude Azimuth Distance (km) Brightness Sun altitude
Rises 02:05:30 0° 303° (WNW) 2,892 ? -38.7°
Reaches altitude 10° 02:07:50 10° 299° (WNW) 1,992 ? -39.2°
Enters shadow 02:08:11 12° 298° (WNW) 1,859 ? -39.2°
